Location: Baili�vre
(50.0696°N, 4.2409°E)
Time: 06:27:31
(UTC+00:00)

Cosmos 1190 Rocket - Pass Details

Date: 08 August 2020
Orbit: 756 x 780 km, 74.1° (Epoch: 23 September)

Event Time Altitude Azimuth Distance (km) Brightness Sun altitude
Rises 20:15:21 0° 182° (S) 3,228 6.9 -9.2°
Reaches altitude 10° 20:17:47 10° 176° (S) 2,310 6.1 -9.5°
Maximum altitude 20:22:45 44° 105° (ESE) 1,059 4.3 -10.1°
Drops below altitude 10° 20:27:46 10° 34° (NE) 2,339 6.6 -10.7°
Sets 20:30:15 0° 29° (NNE) 3,274 7.4 -11.0°
